QPF
0.00 0.00 0.00 0.00 0.00 0.00 0.00 0.00 0.00 0.00 0.00 0.00 0.00 0.00 0.00 0.00 0.00 0.00 0.00 0.00 0.00 0.00 0.00 0.02 0.02 0.01 0.01 0.01 0.01 0.01 0.00 0.00 0.00 0.01 0.01 0.01 0.01 0.01 0.00 0.01 0.00 0.00 0.00 0.00 0.00 0.00 0.00 0.00 0.00
0.00 0.00 0.00 0.00 0.00 0.00 0.00 0.00 0.00 0.00 0.00 0.00 0.00 0.00 0.00 0.00 0.00 0.00 0.00 0.00 0.00 0.00 0.00 0.01 0.01 0.01 0.01 0.01 0.01 0.00 0.00 0.00 0.00 0.00 0.01 0.01 0.01 0.01 0.01 0.01 0.01 0.00 0.00 0.00 0.00 0.00 0.00 0.00 0.00
0.00 0.00 0.00 0.00 0.00 0.00 0.00 0.00 0.00 0.00 0.00 0.00 0.00 0.00 0.00 0.00 0.00 0.00 0.00 0.00 0.00 0.00 0.00 0.01 0.01 0.01 0.01 0.01 0.01 0.01 0.00 0.00 0.00 0.01 0.01 0.01 0.01 0.01 0.00 0.00 0.00 0.00 0.00 0.00 0.00 0.00 0.00 0.00 0.00
0.00 0.00 0.00 0.00 0.00 0.00 0.00 0.00 0.00 0.00 0.00 0.00 0.00 0.00 0.00 0.00 0.00 0.00 0.00 0.00 0.00 0.00 0.00 0.01 0.01 0.01 0.02 0.01 0.01 0.01 0.01 0.00 0.01 0.01 0.01 0.01 0.01 0.00 0.00 0.00 0.00 0.00 0.00 0.00 0.00 0.00 0.00 0.00 0.00
0.00 0.00 0.00 0.00 0.00 0.00 0.00 0.00 0.00 0.00 0.00 0.00 0.00 0.00 0.00 0.00 0.00 0.00 0.00 0.00 0.00 0.00 0.00 0.01 0.01 0.02 0.02 0.02 0.02 0.01 0.01 0.01 0.01 0.01 0.00 0.00 0.00 0.00 0.00 0.00 0.00 0.00 0.00 0.00 0.00 0.00 0.00 0.00 0.00
0.00 0.00 0.00 0.00 0.00 0.00 0.00 0.00 0.00 0.00 0.00 0.00 0.00 0.00 0.00 0.00 0.00 0.00 0.00 0.00 0.00 0.00 0.00 0.01 0.02 0.02 0.02 0.01 0.02 0.01 0.01 0.02 0.01 0.00 0.00 0.00 0.00 0.00 0.00 0.00 0.00 0.00 0.00 0.00 0.00 0.00 0.00 0.00 0.00
0.00 0.00 0.00 0.00 0.00 0.00 0.00 0.00 0.00 0.00 0.00 0.00 0.00 0.00 0.00 0.00 0.00 0.00 0.00 0.00 0.00 0.00 0.00 0.01 0.02 0.02 0.02 0.01 0.01 0.01 0.01 0.01 0.01 0.00 0.00 0.00 0.00 0.00 0.00 0.00 0.00 0.00 0.00 0.00 0.00 0.00 0.00 0.00 0.00
0.00 0.00 0.00 0.00 0.00 0.00 0.00 0.00 0.00 0.00 0.00 0.00 0.00 0.00 0.00 0.00 0.00 0.00 0.00 0.00 0.00 0.00 0.00 0.01 0.02 0.02 0.02 0.01 0.01 0.01 0.01 0.01 0.01 0.00 0.00 0.00 0.00 0.00 0.00 0.00 0.00 0.00 0.00 0.00 0.00 0.00 0.00 0.00 0.00
0.00 0.00 0.00 0.00 0.00 0.00 0.00 0.00 0.00 0.00 0.00 0.00 0.00 0.00 0.00 0.00 0.00 0.00 0.00 0.00 0.00 0.00 0.00 0.01 0.01 0.01 0.01 0.01 0.01 0.01 0.01 0.01 0.00 0.00 0.00 0.00 0.00 0.00 0.00 0.00 0.00 0.00 0.00 0.00 0.00 0.00 0.00 0.00 0.00
0.00 0.00 0.00 0.00 0.00 0.00 0.00 0.00 0.00 0.00 0.00 0.00 0.00 0.00 0.00 0.00 0.00 0.00 0.00 0.00 0.00 0.00 0.00 0.01 0.01 0.01 0.01 0.01 0.01 0.01 0.01 0.01 0.00 0.00 0.00 0.00 0.00 0.00 0.00 0.00 0.00 0.00 0.00 0.00 0.00 0.00 0.00 0.00 0.00
0.00 0.00 0.00 0.00 0.00 0.00 0.00 0.00 0.00 0.00 0.00 0.00 0.00 0.00 0.00 0.00 0.00 0.00 0.00 0.00 0.00 0.00 0.00 0.00 0.01 0.01 0.01 0.00 0.00 0.01 0.01 0.00 0.00 0.00 0.00 0.00 0.00 0.00 0.00 0.00 0.00 0.00 0.00 0.00 0.00 0.00 0.00 0.00 0.00
0.00 0.00 0.00 0.00 0.00 0.00 0.00 0.00 0.00 0.00 0.00 0.00 0.00 0.00 0.00 0.00 0.00 0.00 0.00 0.00 0.00 0.00 0.00 0.00 0.01 0.01 0.01 0.00 0.00 0.00 0.00 0.00 0.00 0.00 0.00 0.00 0.00 0.00 0.00 0.00 0.00 0.00 0.00 0.00 0.00 0.00 0.00 0.00 0.00
0.00 0.00 0.00 0.00 0.00 0.00 0.00 0.00 0.00 0.00 0.00 0.00 0.00 0.00 0.00 0.00 0.00 0.00 0.00 0.00 0.00 0.00 0.00 0.00 0.01 0.01 0.00 0.00 0.00 0.00 0.00 0.00 0.00 0.00 0.00 0.00 0.00 0.00 0.00 0.00 0.00 0.00 0.00 0.00 0.00 0.00 0.00 0.00 0.00
0.00 0.00 0.00 0.00 0.00 0.00 0.00 0.00 0.00 0.00 0.00 0.00 0.00 0.00 0.00 0.00 0.00 0.00 0.00 0.00 0.00 0.00 0.00 0.00 0.00 0.01 0.00 0.00 0.00 0.00 0.00 0.00 0.00 0.00 0.00 0.00 0.00 0.00 0.00 0.00 0.00 0.00 0.00 0.00 0.00 0.00 0.00 0.00 0.00
0.01 0.01 0.01 0.00 0.00 0.00 0.00 0.00 0.00 0.00 0.00 0.00 0.00 0.00 0.00 0.00 0.00 0.00 0.00 0.00 0.00 0.00 0.00 0.00 0.00 0.00 0.00 0.00 0.00 0.00 0.00 0.00 0.00 0.00 0.00 0.00 0.00 0.00 0.00 0.00 0.00 0.00 0.00 0.00 0.00 0.00 0.00 0.00 0.00
0.02 0.02 0.01 0.00 0.00 0.00 0.00 0.00 0.00 0.00 0.00 0.00 0.00 0.00 0.00 0.00 0.00 0.00 0.00 0.00 0.00 0.00 0.00 0.00 0.00 0.00 0.00 0.00 0.00 0.00 0.00 0.00 0.00 0.00 0.00 0.00 0.00 0.00 0.00 0.00 0.00 0.00 0.00 0.00 0.00 0.00 0.00 0.00 0.00
0.04 0.03 0.01 0.00 0.00 0.00 0.01 0.00 0.00 0.00 0.00 0.00 0.00 0.00 0.00 0.00 0.00 0.00 0.00 0.00 0.00 0.00 0.00 0.00 0.00 0.00 0.00 0.00 0.00 0.00 0.00 0.00 0.00 0.00 0.00 0.00 0.00 0.00 0.00 0.00 0.00 0.00 0.00 0.00 0.00 0.00 0.00 0.00 0.00
0.04 0.02 0.01 0.00 0.00 0.00 0.00 0.00 0.00 0.00 0.00 0.00 0.00 0.00 0.00 0.00 0.00 0.00 0.00 0.00 0.00 0.00 0.00 0.00 0.00 0.00 0.00 0.00 0.01 0.01 0.00 0.00 0.00 0.00 0.00 0.00 0.00 0.00 0.00 0.00 0.00 0.00 0.00 0.00 0.00 0.00 0.00 0.00 0.00
0.02 0.02 0.01 0.00 0.00 0.00 0.00 0.00 0.00 0.00 0.00 0.00 0.00 0.00 0.00 0.00 0.00 0.00 0.00 0.00 0.00 0.00 0.00 0.00 0.00 0.00 0.00 0.00 0.01 0.01 0.00 0.00 0.00 0.00 0.00 0.00 0.00 0.00 0.00 0.00 0.00 0.00 0.00 0.00 0.00 0.00 0.00 0.00 0.00
0.02 0.03 0.02 0.01 0.00 0.00 0.00 0.00 0.00 0.00 0.00 0.00 0.00 0.00 0.00 0.00 0.00 0.00 0.00 0.00 0.00 0.00 0.00 0.00 0.00 0.00 0.00 0.00 0.00 0.00 0.00 0.00 0.00 0.00 0.00 0.00 0.00 0.00 0.00 0.00 0.00 0.00 0.00 0.00 0.00 0.00 0.00 0.00 0.00
0.03 0.02 0.02 0.02 0.01 0.01 0.00 0.00 0.00 0.00 0.00 0.00 0.00 0.00 0.00 0.00 0.00 0.00 0.00 0.00 0.00 0.00 0.00 0.00 0.00 0.00 0.00 0.00 0.00 0.00 0.00 0.00 0.00 0.00 0.00 0.00 0.00 0.00 0.00 0.00 0.00 0.00 0.00 0.00 0.00 0.00 0.00 0.00 0.00
0.04 0.01 0.01 0.02 0.03 0.02 0.01 0.01 0.00 0.00 0.00 0.00 0.00 0.00 0.00 0.00 0.00 0.00 0.00 0.00 0.00 0.00 0.00 0.00 0.00 0.00 0.00 0.00 0.00 0.00 0.00 0.00 0.00 0.00 0.00 0.00 0.00 0.00 0.00 0.00 0.00 0.00 0.00 0.00 0.00 0.00 0.00 0.00 0.00
0.04 0.02 0.02 0.02 0.04 0.05 0.03 0.02 0.00 0.00 0.00 0.00 0.00 0.00 0.00 0.00 0.00 0.00 0.00 0.00 0.00 0.00 0.00 0.00 0.00 0.00 0.00 0.00 0.00 0.00 0.00 0.00 0.00 0.00 0.00 0.00 0.00 0.00 0.00 0.00 0.00 0.00 0.00 0.00 0.00 0.00 0.00 0.00 0.00
0.05 0.06 0.07 0.06 0.09 0.13 0.04 0.01 0.00 0.00 0.00 0.00 0.00 0.00 0.00 0.00 0.00 0.00 0.00 0.00 0.00 0.00 0.00 0.00 0.00 0.00 0.00 0.00 0.00 0.00 0.00 0.00 0.00 0.00 0.00 0.00 0.00 0.00 0.00 0.00 0.00 0.00 0.00 0.00 0.00 0.00 0.00 0.00 0.00
0.12 0.17 0.25 0.26 0.24 0.14 0.02 0.01 0.00 0.00 0.00 0.00 0.00 0.00 0.00 0.00 0.00 0.00 0.00 0.00 0.00 0.00 0.00 0.00 0.00 0.00 0.00 0.00 0.00 0.00 0.00 0.00 0.00 0.00 0.00 0.00 0.00 0.00 0.01 0.00 0.00 0.00 0.00 0.00 0.00 0.00 0.00 0.00 0.01
0.10 0.17 0.21 0.18 0.11 0.03 0.00 0.00 0.00 0.00 0.00 0.00 0.00 0.00 0.00 0.00 0.00 0.00 0.00 0.00 0.00 0.00 0.00 0.00 0.00 0.00 0.00 0.00 0.00 0.00 0.00 0.00 0.00 0.00 0.00 0.00 0.01 0.01 0.01 0.01 0.01 0.00 0.00 0.00 0.00 0.01 0.01 0.01 0.01
0.07 0.10 0.11 0.13 0.08 0.03 0.01 0.00 0.00 0.00 0.00 0.00 0.00 0.00 0.00 0.00 0.00 0.00 0.00 0.00 0.00 0.00 0.00 0.00 0.00 0.00 0.00 0.00 0.00 0.00 0.00 0.00 0.00 0.00 0.00 0.00 0.01 0.01 0.01 0.01 0.01 0.01 0.01 0.00 0.00 0.00 0.00 0.00 0.00
0.06 0.07 0.13 0.19 0.16 0.07 0.02 0.00 0.00 0.00 0.00 0.00 0.00 0.00 0.00 0.00 0.00 0.00 0.00 0.00 0.00 0.00 0.00 0.00 0.00 0.00 0.00 0.00 0.00 0.00 0.00 0.00 0.00 0.00 0.00 0.00 0.00 0.00 0.00 0.00 0.01 0.01 0.01 0.01 0.00 0.00 0.00 0.00 0.00
0.08 0.11 0.15 0.18 0.15 0.09 0.04 0.01 0.00 0.00 0.00 0.00 0.00 0.00 0.00 0.00 0.00 0.00 0.00 0.00 0.00 0.00 0.00 0.00 0.00 0.00 0.00 0.00 0.00 0.00 0.00 0.00 0.00 0.00 0.00 0.00 0.00 0.00 0.00 0.00 0.01 0.01 0.01 0.01 0.01 0.01 0.01 0.00 0.00
0.09 0.10 0.11 0.14 0.12 0.08 0.04 0.01 0.00 0.00 0.00 0.00 0.00 0.00 0.00 0.00 0.00 0.00 0.00 0.00 0.00 0.00 0.00 0.00 0.00 0.00 0.00 0.00 0.00 0.00 0.00 0.00 0.00 0.00 0.00 0.00 0.00 0.00 0.00 0.00 0.00 0.00 0.00 0.00 0.00 0.00 0.00 0.00 0.00
MSLP
1013.27 1013.50 1013.75 1013.94 1014.01 1013.92 1013.65 1013.22 1012.67 1012.09 1011.54 1011.07 1010.73 1010.51 1010.41 1010.40 1010.45 1010.55 1010.70 1010.91 1011.19 1011.58 1012.07 1012.66 1013.31 1013.97 1014.60 1015.15 1015.60 1015.95 1016.21 1016.41 1016.60 1016.81 1017.05 1017.31 1017.58 1017.82 1018.02 1018.14 1018.21 1018.22 1018.22 1018.23 1018.27 1018.36 1018.49 1018.64 1018.78
1013.39 1013.61 1013.83 1013.97 1013.96 1013.78 1013.42 1012.91 1012.31 1011.68 1011.11 1010.63 1010.28 1010.07 1009.98 1009.98 1010.04 1010.15 1010.31 1010.54 1010.86 1011.29 1011.84 1012.49 1013.21 1013.94 1014.63 1015.24 1015.74 1016.13 1016.42 1016.64 1016.85 1017.07 1017.31 1017.58 1017.85 1018.10 1018.30 1018.44 1018.52 1018.55 1018.56 1018.59 1018.66 1018.77 1018.92 1019.08 1019.22
1013.53 1013.71 1013.86 1013.90 1013.80 1013.52 1013.07 1012.50 1011.86 1011.23 1010.66 1010.21 1009.90 1009.73 1009.67 1009.70 1009.79 1009.93 1010.12 1010.38 1010.73 1011.19 1011.78 1012.47 1013.22 1013.99 1014.72 1015.36 1015.89 1016.30 1016.61 1016.86 1017.08 1017.31 1017.56 1017.83 1018.11 1018.36 1018.57 1018.72 1018.81 1018.85 1018.89 1018.94 1019.02 1019.15 1019.31 1019.47 1019.61
1013.62 1013.73 1013.78 1013.71 1013.49 1013.11 1012.59 1011.97 1011.32 1010.71 1010.19 1009.81 1009.57 1009.46 1009.47 1009.56 1009.70 1009.89 1010.11 1010.41 1010.79 1011.28 1011.88 1012.58 1013.34 1014.12 1014.85 1015.50 1016.04 1016.46 1016.79 1017.05 1017.28 1017.52 1017.78 1018.06 1018.34 1018.60 1018.82 1018.97 1019.08 1019.15 1019.20 1019.27 1019.37 1019.50 1019.66 1019.82 1019.95
1013.60 1013.63 1013.57 1013.38 1013.04 1012.57 1011.98 1011.35 1010.71 1010.15 1009.71 1009.41 1009.27 1009.26 1009.35 1009.52 1009.73 1009.97 1010.25 1010.58 1010.99 1011.49 1012.09 1012.78 1013.52 1014.27 1014.99 1015.62 1016.15 1016.57 1016.90 1017.18 1017.43 1017.69 1017.96 1018.25 1018.54 1018.82 1019.04 1019.22 1019.34 1019.43 1019.50 1019.58 1019.69 1019.82 1019.98 1020.12 1020.24
1013.46 1013.39 1013.22 1012.91 1012.47 1011.92 1011.30 1010.67 1010.07 1009.59 1009.23 1009.04 1009.00 1009.09 1009.28 1009.52 1009.81 1010.11 1010.44 1010.81 1011.23 1011.74 1012.32 1012.99 1013.69 1014.40 1015.07 1015.67 1016.19 1016.61 1016.95 1017.25 1017.53 1017.81 1018.10 1018.41 1018.72 1019.01 1019.26 1019.45 1019.60 1019.71 1019.80 1019.89 1019.99 1020.12 1020.25 1020.37 1020.47
1013.20 1013.05 1012.78 1012.38 1011.86 1011.26 1010.63 1010.02 1009.48 1009.07 1008.81 1008.71 1008.76 1008.94 1009.20 1009.52 1009.86 1010.22 1010.58 1010.98 1011.42 1011.92 1012.48 1013.11 1013.76 1014.42 1015.06 1015.63 1016.13 1016.56 1016.92 1017.25 1017.56 1017.88 1018.20 1018.54 1018.87 1019.18 1019.45 1019.67 1019.83 1019.96 1020.07 1020.17 1020.27 1020.37 1020.48 1020.58 1020.64
1012.87 1012.65 1012.31 1011.84 1011.28 1010.66 1010.05 1009.48 1009.00 1008.67 1008.49 1008.46 1008.57 1008.80 1009.11 1009.46 1009.84 1010.23 1010.62 1011.03 1011.47 1011.96 1012.50 1013.08 1013.70 1014.32 1014.92 1015.48 1015.98 1016.43 1016.82 1017.19 1017.54 1017.90 1018.27 1018.63 1018.99 1019.32 1019.61 1019.84 1020.03 1020.18 1020.30 1020.40 1020.49 1020.58 1020.66 1020.72 1020.76
1012.52 1012.25 1011.86 1011.36 1010.79 1010.20 1009.62 1009.10 1008.69 1008.41 1008.28 1008.29 1008.43 1008.67 1008.98 1009.34 1009.72 1010.11 1010.51 1010.92 1011.36 1011.84 1012.35 1012.91 1013.49 1014.09 1014.67 1015.23 1015.74 1016.22 1016.66 1017.08 1017.48 1017.88 1018.28 1018.67 1019.05 1019.40 1019.71 1019.96 1020.17 1020.33 1020.46 1020.56 1020.65 1020.72 1020.78 1020.82 1020.83
1012.17 1011.87 1011.46 1010.97 1010.42 1009.87 1009.35 1008.90 1008.54 1008.30 1008.19 1008.20 1008.32 1008.54 1008.82 1009.14 1009.50 1009.88 1010.27 1010.67 1011.11 1011.57 1012.07 1012.61 1013.18 1013.76 1014.34 1014.91 1015.45 1015.97 1016.46 1016.93 1017.38 1017.82 1018.24 1018.66 1019.05 1019.41 1019.73 1019.99 1020.21 1020.39 1020.53 1020.64 1020.73 1020.79 1020.84 1020.86 1020.86
1011.81 1011.49 1011.08 1010.62 1010.13 1009.64 1009.19 1008.81 1008.50 1008.29 1008.17 1008.15 1008.23 1008.38 1008.60 1008.87 1009.19 1009.54 1009.91 1010.31 1010.74 1011.20 1011.70 1012.23 1012.80 1013.39 1013.98 1014.57 1015.15 1015.70 1016.24 1016.75 1017.23 1017.70 1018.15 1018.57 1018.97 1019.33 1019.66 1019.93 1020.16 1020.35 1020.51 1020.63 1020.73 1020.80 1020.84 1020.87 1020.87
1011.39 1011.05 1010.67 1010.25 1009.83 1009.43 1009.06 1008.74 1008.47 1008.27 1008.13 1008.07 1008.08 1008.16 1008.31 1008.53 1008.80 1009.12 1009.49 1009.89 1010.32 1010.79 1011.31 1011.85 1012.43 1013.02 1013.63 1014.25 1014.85 1015.44 1016.01 1016.54 1017.05 1017.54 1017.99 1018.42 1018.81 1019.17 1019.50 1019.78 1020.02 1020.23 1020.41 1020.55 1020.66 1020.75 1020.82 1020.86 1020.88
1010.85 1010.50 1010.14 1009.78 1009.44 1009.12 1008.84 1008.58 1008.35 1008.15 1007.99 1007.87 1007.82 1007.84 1007.93 1008.10 1008.34 1008.65 1009.02 1009.43 1009.89 1010.39 1010.92 1011.49 1012.09 1012.71 1013.34 1013.97 1014.59 1015.20 1015.78 1016.32 1016.84 1017.32 1017.77 1018.19 1018.58 1018.94 1019.27 1019.56 1019.82 1020.05 1020.25 1020.42 1020.57 1020.69 1020.79 1020.86 1020.91
1010.13 1009.77 1009.44 1009.14 1008.88 1008.65 1008.44 1008.24 1008.04 1007.84 1007.65 1007.50 1007.39 1007.36 1007.41 1007.56 1007.79 1008.12 1008.51 1008.96 1009.46 1010.00 1010.57 1011.17 1011.80 1012.44 1013.09 1013.73 1014.37 1014.97 1015.55 1016.09 1016.59 1017.06 1017.49 1017.91 1018.29 1018.65 1018.99 1019.31 1019.59 1019.85 1020.08 1020.29 1020.47 1020.63 1020.76 1020.88 1020.97
1009.26 1008.89 1008.58 1008.34 1008.16 1008.01 1007.86 1007.70 1007.52 1007.31 1007.11 1006.92 1006.79 1006.73 1006.76 1006.91 1007.17 1007.52 1007.95 1008.46 1009.01 1009.60 1010.22 1010.86 1011.52 1012.19 1012.86 1013.52 1014.15 1014.75 1015.31 1015.83 1016.31 1016.76 1017.18 1017.58 1017.97 1018.35 1018.70 1019.04 1019.36 1019.65 1019.92 1020.16 1020.38 1020.58 1020.76 1020.91 1021.05
1008.28 1007.91 1007.64 1007.46 1007.34 1007.24 1007.14 1007.00 1006.83 1006.61 1006.38 1006.17 1006.02 1005.95 1006.00 1006.16 1006.45 1006.85 1007.34 1007.89 1008.50 1009.15 1009.82 1010.51 1011.21 1011.91 1012.61 1013.28 1013.91 1014.51 1015.05 1015.55 1016.00 1016.43 1016.84 1017.24 1017.63 1018.03 1018.41 1018.79 1019.14 1019.47 1019.78 1020.05 1020.31 1020.54 1020.75 1020.94 1021.12
1007.31 1006.95 1006.72 1006.59 1006.51 1006.46 1006.37 1006.23 1006.04 1005.80 1005.54 1005.31 1005.15 1005.08 1005.15 1005.34 1005.67 1006.11 1006.65 1007.25 1007.91 1008.60 1009.32 1010.06 1010.81 1011.55 1012.27 1012.97 1013.61 1014.21 1014.74 1015.22 1015.66 1016.07 1016.47 1016.87 1017.28 1017.69 1018.11 1018.52 1018.92 1019.29 1019.63 1019.94 1020.22 1020.47 1020.71 1020.93 1021.14
1006.45 1006.13 1005.94 1005.85 1005.80 1005.75 1005.66 1005.49 1005.25 1004.97 1004.67 1004.42 1004.24 1004.18 1004.27 1004.49 1004.85 1005.32 1005.89 1006.53 1007.21 1007.94 1008.70 1009.47 1010.27 1011.05 1011.82 1012.54 1013.22 1013.82 1014.36 1014.84 1015.27 1015.67 1016.06 1016.47 1016.89 1017.33 1017.78 1018.23 1018.66 1019.07 1019.44 1019.77 1020.07 1020.35 1020.61 1020.85 1021.08
1005.78 1005.51 1005.36 1005.31 1005.27 1005.20 1005.06 1004.83 1004.53 1004.18 1003.83 1003.54 1003.35 1003.30 1003.39 1003.63 1004.01 1004.50 1005.08 1005.72 1006.41 1007.15 1007.92 1008.73 1009.55 1010.39 1011.20 1011.97 1012.68 1013.32 1013.88 1014.37 1014.80 1015.20 1015.60 1016.01 1016.44 1016.90 1017.38 1017.86 1018.33 1018.76 1019.16 1019.52 1019.84 1020.14 1020.41 1020.66 1020.91
1005.31 1005.09 1004.99 1004.95 1004.89 1004.77 1004.56 1004.25 1003.86 1003.43 1003.03 1002.70 1002.49 1002.44 1002.54 1002.80 1003.18 1003.67 1004.23 1004.86 1005.53 1006.25 1007.02 1007.83 1008.68 1009.55 1010.41 1011.24 1012.00 1012.68 1013.27 1013.79 1014.23 1014.65 1015.05 1015.47 1015.91 1016.39 1016.89 1017.39 1017.88 1018.35 1018.77 1019.15 1019.50 1019.81 1020.10 1020.37 1020.63
1004.96 1004.80 1004.73 1004.67 1004.58 1004.39 1004.08 1003.66 1003.18 1002.67 1002.20 1001.84 1001.63 1001.58 1001.70 1001.97 1002.36 1002.83 1003.37 1003.96 1004.59 1005.28 1006.02 1006.82 1007.67 1008.57 1009.46 1010.34 1011.15 1011.89 1012.53 1013.07 1013.55 1013.98 1014.40 1014.82 1015.28 1015.76 1016.27 1016.80 1017.31 1017.80 1018.25 1018.66 1019.03 1019.37 1019.68 1019.98 1020.25
1004.62 1004.49 1004.43 1004.35 1004.18 1003.90 1003.48 1002.96 1002.37 1001.79 1001.28 1000.91 1000.70 1000.68 1000.83 1001.12 1001.52 1001.99 1002.50 1003.05 1003.63 1004.26 1004.96 1005.72 1006.56 1007.46 1008.38 1009.29 1010.15 1010.93 1011.63 1012.22 1012.74 1013.20 1013.63 1014.07 1014.54 1015.03 1015.56 1016.09 1016.63 1017.14 1017.62 1018.07 1018.48 1018.85 1019.20 1019.52 1019.83
1004.16 1004.05 1003.95 1003.82 1003.57 1003.18 1002.65 1002.03 1001.35 1000.71 1000.18 999.81 999.63 999.66 999.86 1000.20 1000.63 1001.11 1001.61 1002.13 1002.67 1003.24 1003.88 1004.59 1005.40 1006.27 1007.19 1008.12 1009.01 1009.84 1010.58 1011.23 1011.80 1012.30 1012.77 1013.24 1013.72 1014.23 1014.76 1015.32 1015.87 1016.41 1016.92 1017.41 1017.86 1018.28 1018.68 1019.05 1019.39
1003.54 1003.39 1003.24 1003.02 1002.67 1002.17 1001.54 1000.82 1000.08 999.40 998.87 998.53 998.40 998.50 998.77 999.18 999.67 1000.18 1000.69 1001.20 1001.70 1002.23 1002.81 1003.47 1004.22 1005.05 1005.95 1006.87 1007.78 1008.64 1009.43 1010.14 1010.76 1011.32 1011.84 1012.35 1012.86 1013.39 1013.95 1014.51 1015.08 1015.65 1016.20 1016.72 1017.23 1017.70 1018.15 1018.57 1018.96
1002.76 1002.55 1002.31 1001.99 1001.53 1000.92 1000.19 999.39 998.60 997.91 997.39 997.09 997.04 997.21 997.57 998.06 998.62 999.19 999.73 1000.25 1000.74 1001.23 1001.77 1002.37 1003.06 1003.84 1004.70 1005.60 1006.50 1007.39 1008.21 1008.97 1009.66 1010.29 1010.88 1011.45 1012.01 1012.57 1013.15 1013.74 1014.33 1014.91 1015.49 1016.06 1016.60 1017.13 1017.64 1018.11 1018.55
1001.96 1001.64 1001.30 1000.86 1000.29 999.58 998.76 997.90 997.08 996.38 995.88 995.62 995.63 995.87 996.31 996.88 997.51 998.14 998.74 999.28 999.78 1000.27 1000.77 1001.33 1001.96 1002.69 1003.49 1004.35 1005.24 1006.13 1006.99 1007.80 1008.56 1009.27 1009.94 1010.57 1011.19 1011.81 1012.42 1013.03 1013.63 1014.23 1014.83 1015.42 1016.00 1016.57 1017.12 1017.65 1018.14
1001.29 1000.85 1000.38 999.82 999.14 998.34 997.45 996.54 995.68 994.98 994.49 994.26 994.30 994.59 995.08 995.70 996.39 997.08 997.73 998.31 998.84 999.34 999.83 1000.36 1000.96 1001.63 1002.38 1003.19 1004.06 1004.94 1005.82 1006.68 1007.51 1008.30 1009.05 1009.77 1010.46 1011.12 1011.77 1012.40 1013.01 1013.62 1014.22 1014.82 1015.42 1016.02 1016.60 1017.17 1017.70
1000.91 1000.34 999.74 999.06 998.27 997.38 996.43 995.47 994.60 993.88 993.38 993.15 993.19 993.48 993.98 994.62 995.33 996.06 996.75 997.38 997.95 998.47 998.98 999.50 1000.07 1000.70 1001.40 1002.18 1003.01 1003.88 1004.77 1005.67 1006.55 1007.42 1008.25 1009.04 1009.80 1010.52 1011.20 1011.85 1012.47 1013.07 1013.66 1014.25 1014.85 1015.46 1016.06 1016.65 1017.21
1000.91 1000.20 999.47 998.67 997.78 996.82 995.81 994.83 993.92 993.19 992.67 992.40 992.40 992.65 993.10 993.71 994.40 995.12 995.83 996.50 997.11 997.68 998.22 998.76 999.33 999.94 1000.61 1001.34 1002.14 1002.99 1003.88 1004.80 1005.73 1006.65 1007.55 1008.41 1009.23 1009.99 1010.71 1011.36 1011.98 1012.57 1013.14 1013.71 1014.30 1014.89 1015.49 1016.09 1016.67
1001.22 1000.37 999.50 998.58 997.60 996.58 995.54 994.53 993.62 992.87 992.31 992.00 991.93 992.09 992.46 992.99 993.62 994.31 995.02 995.71 996.37 996.99 997.58 998.16 998.74 999.35 1000.00 1000.71 1001.47 1002.30 1003.18 1004.10 1005.05 1006.00 1006.95 1007.86 1008.72 1009.52 1010.26 1010.93 1011.54 1012.11 1012.66 1013.21 1013.77 1014.34 1014.93 1015.52 1016.10
Thickness
5713 5715 5718 5715 5709 5709 5715 5728 5733 5733 5738 5748 5750 5750 5753 5754 5751 5749 5757 5764 5764 5760 5754 5748 5745 5742 5740 5738 5737 5735 5733 5732 5731 5730 5728 5727 5726 5724 5723 5722 5720 5719 5717 5716 5715 5714 5712 5711 5709
5710 5712 5710 5709 5703 5703 5716 5729 5729 5734 5742 5743 5743 5746 5748 5754 5759 5756 5754 5758 5759 5756 5751 5747 5742 5740 5737 5735 5734 5732 5730 5729 5727 5726 5725 5723 5722 5720 5719 5717 5716 5714 5712 5711 5709 5708 5707 5705 5704
5705 5706 5703 5702 5702 5710 5720 5728 5733 5737 5739 5739 5740 5745 5749 5752 5755 5755 5756 5755 5754 5751 5748 5743 5739 5736 5734 5732 5730 5728 5727 5725 5724 5722 5721 5719 5718 5716 5714 5712 5711 5709 5707 5705 5704 5703 5701 5700 5698
5699 5697 5698 5697 5703 5718 5725 5730 5731 5730 5732 5736 5739 5740 5747 5749 5753 5755 5752 5751 5750 5747 5744 5739 5735 5733 5731 5729 5727 5725 5723 5721 5720 5718 5717 5715 5713 5711 5709 5707 5705 5703 5702 5700 5699 5697 5696 5694 5692
5692 5691 5687 5691 5704 5719 5725 5728 5727 5727 5731 5735 5736 5739 5742 5744 5747 5748 5747 5747 5746 5743 5740 5736 5731 5729 5727 5725 5723 5721 5719 5718 5716 5714 5713 5711 5709 5706 5704 5702 5700 5699 5697 5695 5693 5692 5690 5688 5686
5681 5684 5682 5690 5704 5716 5722 5724 5724 5726 5730 5733 5733 5736 5740 5740 5741 5742 5742 5742 5741 5739 5736 5732 5727 5725 5723 5721 5720 5718 5716 5714 5712 5710 5708 5706 5704 5701 5699 5697 5695 5694 5692 5690 5688 5686 5685 5683 5681
5674 5675 5681 5692 5700 5709 5718 5723 5722 5725 5728 5732 5737 5734 5738 5736 5737 5737 5737 5737 5736 5733 5732 5729 5725 5721 5719 5717 5716 5714 5712 5709 5707 5706 5704 5701 5699 5697 5694 5692 5690 5688 5687 5685 5683 5681 5679 5677 5675
5673 5673 5678 5687 5693 5704 5717 5718 5723 5725 5729 5737 5736 5733 5736 5736 5732 5732 5731 5730 5729 5728 5728 5726 5723 5720 5717 5714 5711 5710 5708 5705 5703 5701 5699 5696 5694 5692 5689 5687 5685 5683 5681 5679 5677 5675 5673 5671 5669
5662 5660 5674 5687 5691 5702 5711 5711 5718 5725 5728 5728 5733 5736 5737 5732 5727 5725 5723 5722 5723 5723 5724 5724 5722 5719 5716 5713 5708 5706 5703 5701 5699 5696 5694 5692 5691 5688 5685 5683 5680 5678 5676 5674 5672 5670 5667 5665 5663
5652 5657 5678 5691 5696 5700 5704 5707 5713 5714 5717 5721 5723 5723 5724 5723 5722 5722 5721 5721 5721 5721 5721 5722 5720 5717 5714 5711 5707 5704 5701 5698 5696 5694 5691 5689 5687 5685 5682 5677 5675 5673 5671 5669 5666 5664 5662 5661 5659
5651 5661 5677 5684 5690 5692 5695 5701 5708 5709 5712 5723 5726 5723 5718 5718 5719 5722 5723 5724 5724 5722 5720 5720 5717 5715 5712 5709 5706 5703 5700 5697 5694 5692 5689 5686 5683 5680 5677 5674 5671 5669 5666 5665 5661 5660 5659 5657 5654
5647 5660 5669 5676 5680 5682 5687 5694 5699 5705 5716 5727 5730 5726 5717 5718 5720 5723 5724 5724 5722 5720 5718 5717 5715 5712 5710 5708 5705 5702 5698 5695 5693 5689 5686 5684 5680 5677 5675 5672 5670 5667 5664 5661 5659 5656 5654 5651 5648
5638 5651 5659 5666 5670 5675 5680 5685 5693 5701 5713 5718 5720 5717 5717 5720 5722 5724 5725 5722 5720 5718 5717 5715 5713 5710 5707 5705 5703 5700 5697 5694 5690 5686 5683 5681 5678 5675 5672 5669 5666 5663 5660 5657 5654 5652 5649 5646 5643
5636 5641 5648 5656 5661 5667 5669 5678 5684 5699 5707 5709 5710 5712 5716 5720 5722 5721 5720 5720 5719 5718 5716 5714 5711 5708 5705 5703 5700 5698 5695 5691 5688 5684 5681 5678 5675 5672 5669 5666 5662 5659 5656 5653 5650 5647 5644 5641 5637
5623 5625 5634 5646 5654 5661 5660 5665 5682 5697 5700 5701 5706 5711 5714 5718 5720 5721 5722 5721 5721 5718 5716 5713 5710 5707 5703 5700 5698 5695 5692 5689 5685 5682 5678 5675 5672 5668 5665 5662 5658 5655 5651 5647 5644 5641 5638 5634 5631
5607 5609 5618 5643 5649 5653 5646 5661 5687 5695 5693 5697 5703 5709 5710 5714 5718 5721 5722 5720 5720 5717 5714 5711 5708 5705 5702 5699 5695 5692 5689 5686 5683 5680 5676 5672 5668 5665 5661 5658 5655 5650 5646 5642 5639 5636 5633 5629 5626
5593 5603 5619 5636 5645 5646 5644 5660 5681 5688 5687 5693 5700 5707 5709 5712 5715 5719 5720 5719 5718 5717 5714 5710 5707 5703 5700 5696 5693 5690 5687 5683 5681 5677 5674 5669 5665 5661 5658 5654 5650 5645 5641 5638 5634 5631 5628 5624 5619
5596 5606 5617 5628 5641 5639 5641 5656 5672 5679 5681 5689 5697 5704 5707 5711 5716 5719 5719 5718 5716 5714 5712 5708 5704 5701 5697 5693 5689 5686 5683 5680 5678 5675 5671 5667 5663 5658 5654 5650 5646 5641 5637 5634 5630 5626 5621 5618 5613
5596 5601 5608 5622 5633 5630 5637 5648 5662 5671 5673 5681 5692 5699 5704 5710 5716 5717 5717 5715 5713 5711 5709 5707 5704 5700 5695 5691 5688 5685 5681 5679 5676 5673 5669 5665 5660 5656 5651 5647 5643 5638 5634 5631 5626 5621 5615 5611 5606
5578 5583 5596 5609 5616 5618 5627 5639 5654 5663 5669 5678 5687 5695 5702 5706 5711 5712 5712 5712 5711 5710 5708 5706 5704 5701 5697 5694 5691 5686 5682 5677 5674 5670 5666 5662 5658 5653 5649 5645 5640 5635 5631 5627 5622 5616 5612 5606 5601
5567 5575 5586 5593 5599 5605 5611 5623 5641 5657 5665 5673 5682 5691 5699 5703 5709 5711 5710 5710 5710 5709 5708 5707 5705 5702 5698 5693 5687 5681 5676 5672 5669 5667 5664 5661 5656 5651 5647 5642 5638 5633 5628 5623 5618 5613 5608 5603 5596
5558 5576 5579 5581 5581 5589 5597 5607 5640 5652 5657 5665 5676 5686 5695 5702 5706 5709 5710 5710 5709 5710 5709 5707 5704 5701 5697 5692 5687 5683 5679 5677 5675 5670 5665 5660 5655 5650 5645 5640 5635 5630 5625 5620 5615 5609 5605 5599 5593
5557 5568 5569 5570 5571 5577 5588 5594 5632 5646 5650 5666 5678 5687 5694 5700 5703 5705 5707 5709 5710 5708 5706 5705 5703 5700 5696 5692 5688 5683 5681 5679 5675 5668 5663 5658 5653 5648 5643 5638 5632 5627 5622 5618 5612 5605 5600 5596 5591
5546 5548 5552 5557 5554 5558 5585 5588 5618 5644 5658 5671 5681 5687 5692 5696 5698 5701 5704 5705 5705 5704 5702 5701 5700 5698 5695 5691 5687 5683 5681 5678 5673 5668 5663 5657 5652 5646 5641 5635 5630 5625 5620 5614 5609 5602 5597 5592 5586
5529 5529 5533 5539 5545 5567 5593 5588 5615 5652 5664 5672 5679 5684 5689 5692 5695 5696 5698 5699 5700 5699 5699 5698 5697 5696 5694 5690 5686 5684 5680 5676 5672 5668 5663 5657 5651 5646 5641 5634 5629 5623 5617 5611 5605 5599 5593 5587 5582
5527 5529 5540 5553 5566 5582 5586 5591 5625 5650 5660 5666 5673 5679 5682 5686 5690 5692 5695 5696 5697 5697 5696 5695 5695 5695 5693 5689 5686 5683 5678 5674 5671 5667 5662 5657 5652 5647 5640 5633 5627 5621 5614 5607 5600 5595 5589 5583 5577
5520 5527 5542 5549 5563 5574 5584 5602 5623 5639 5647 5655 5662 5669 5675 5681 5684 5688 5690 5692 5693 5693 5693 5694 5693 5692 5691 5688 5684 5680 5676 5672 5669 5664 5659 5654 5649 5643 5637 5630 5624 5617 5610 5603 5597 5591 5584 5577 5572
5520 5529 5528 5531 5545 5561 5581 5596 5618 5632 5641 5650 5656 5664 5672 5675 5678 5682 5684 5686 5688 5689 5690 5689 5690 5690 5689 5685 5681 5678 5674 5670 5665 5660 5655 5651 5646 5639 5633 5626 5620 5613 5606 5599 5592 5586 5579 5572 5566
5508 5511 5519 5530 5543 5562 5576 5602 5629 5639 5646 5651 5657 5663 5668 5671 5673 5676 5678 5680 5682 5683 5683 5683 5684 5684 5683 5681 5678 5673 5670 5666 5661 5657 5652 5647 5641 5635 5629 5622 5615 5609 5602 5595 5588 5582 5574 5568 5561
5501 5508 5514 5521 5532 5551 5571 5600 5626 5634 5642 5646 5652 5657 5662 5665 5667 5669 5671 5672 5674 5676 5677 5677 5678 5678 5678 5676 5673 5669 5665 5661 5656 5652 5647 5642 5636 5630 5624 5617 5610 5604 5597 5590 5584 5577 5570 5563 5556